View from above orbital plane
|
View from above satellite
|
Ground track
|
The orbit data is extracted from the following two-line orbital elements,
1 32958U 08026A 18115.43354801 .00000024 00000-0 30556-4 0 9996
2 32958 98.3847 133.0796 0010853 91.5924 268.6513 14.19700789513639
Epoch (UTC): | 25 April 2018 10:24:18 |
Eccentricity: | 0.0010853 |
inclination: | 98.3847° |
perigee height: | 818 km |
apogee height: | 834 km |
right ascension of ascending node: | 133.0796° |
argument of perigee: | 91.5924° |
revolutions per day: | 14.19700789 |
mean anomaly at epoch: | 268.6513° |
orbit number at epoch: | 51363 |
The dashed part of the orbit path shows where the satellite is in the earth's shadow,
|
|